Regional Weather Roundup
Issued by NWS Wakefield, VA

Home | Current Version | Previous Version | Graphics & Text | Print | Product List | Glossary On
Versions: 1 2 3 4 5 6 7 8 9 10 11 12 13 14 15 16 17 18 19 20 21 22 23 24 25 26 27
000
ASUS41 KAKQ 260214
RWRAKQ

REGIONAL WEATHER ROUNDUP
NATIONAL WEATHER SERVICE WAKEFIELD VA
900 PM EST SAT FEB 25 2017

Note: "fair" indicates few or no clouds below 12,000 feet with no
significant weather and/or obstructions to visibility. * = Denotes
station may not report precipitation (e.g., rain,snow,etc.),
thunder or fog.

VAZ042-051-052>054-056-260300-
NORTHERN VIRGINIA

CITY           SKY/WX    TMP DP  RH WIND       PRES   REMARKS
WASH NATIONAL  CLOUDY    52  29  41 NW21G36   29.71R
DULLES         PTCLDY    48  25  40 NW16G30   29.73R
FORT BELVOIR   PTCLDY    53  26  36 NW15G26   29.70R
QUANTICO       CLOUDY    54  26  34 NW9G25    29.72R
FREDERICKSBRG* PTCLDY    55  31  38 NW12      29.70R
STAFFORD*      PTCLDY    51  29  41 NW14G21   29.74R
WARRENTON      CLOUDY    51  20  29 NW9G18    29.72R
CULPEPER*      CLEAR     52  24  34 NW13      29.73R
MANASSAS*      PTCLDY    51  25  36 NW17G25   29.73R
LEESBURG*      CLEAR     46  30  53 MISG      29.75R
WINCHESTER     PTCLDY    43  23  45 NW18      29.76R
FRONT ROYAL*   NOT AVBL
LURAY*         CLEAR     45  23  42 SW14G22   29.77R
$$

VAZ048-049-060>072-079>083-260300-
CENTRAL AND SOUTH CENTRAL VIRGINIA

CITY           SKY/WX    TMP DP  RH WIND       PRES   REMARKS
RICHMOND       CLOUDY    57  28  33 NW22G32   29.70R
CHESTERFIELD*  CLOUDY    57  25  28 NW10G17   29.72R
PETERSBURG*    MOCLDY    56  26  30 W14G26    29.73R
HANOVER        CLOUDY    56  29  35 W10       29.72R
TAPPAHANNOCK*  CLOUDY    57  34  40 W8        29.69R
QUINTON*       CLOUDY    58  32  37 NW12G17   29.70R
CHARLOTTSVILLE CLEAR     50  23  34 NW12G21   29.72R
GORDONSVILLE*  NOT AVBL
ORANGE*        CLEAR     50  21  32 SW15G25   29.72R
LOUISA*        PTCLDY    55  27  33 W14G20    29.71R
BUMPASS*       NOT AVBL
FARMVILLE*     PTCLDY    55  24  31 W9        29.74R
CREWE*         NOT AVBL
FORT PICKETT*  NOT AVBL
CHASE CITY*    NOT AVBL
CLARKSVILLE*   NOT AVBL
SOUTH HILL*    CLEAR     56  33  41 NW10G16   29.79R
LAWRENCEVILLE* MOCLDY    57  32  39 NW8       29.73
EMPORIA*       CLOUDY    59  36  41 W9G17     29.73R
$$

VAZ088>098-260300-
SOUTHEAST VIRGINIA

CITY           SKY/WX    TMP DP  RH WIND       PRES   REMARKS
NORFOLK        CLOUDY    63  48  58 VRB6      29.68R
VIRGINIA BEACH LGT RAIN  57  46  66 N15       29.69R
NORFOLK NAVAL  CLOUDY    61  48  62 NW13      29.69R
WEST POINT*    CLOUDY    59  36  41 W12       29.71R
SALUDA*        NOT AVBL
NEWPORT NEWS   CLOUDY    60  46  59 NW8       29.68R
LANGLEY AFB    CLOUDY    60  49  66 NW6       29.68R
FORT EUSTIS    CLOUDY    58  48  68 NW7       29.65R
WILLIAMSBURG*  CLOUDY    57  52  82 NW3       29.71R
HR EXEC AP*    CLOUDY    61  48  63 NW8G18    29.66R
FRANKLIN*      CLOUDY    59  43  55 NW7       29.70R
US460-WAKEFLD  CLOUDY    60  35  39 W9G17     29.72R
$$

VAZ020-022-025-037-045-260300-
WEST CENTRAL AND SOUTHWEST VIRGINIA

CITY           SKY/WX    TMP DP  RH WIND       PRES   REMARKS
STAUNTON*      CLEAR     42  18  37 W16G24    29.81R
WAYNESBORO*    NOT AVBL
HOT SPRINGS VA MOCLDY    30  18  59 W22G40    29.74R WCI  17
LYNCHBURG      CLEAR     48  17  29 W13G24    29.79R
DANVILLE       CLEAR     53  27  36 NW16G23   29.79R
SOUTH BOSTON*  FAIR      56  24  30 NW17G26   29.77
MARTINSVILLE   CLEAR     49  22  35 NW8G23    29.86R
ROANOKE        CLEAR     44  16  32 W20G36    29.86R
BLACKSBURG     CLEAR     38  21  49 W16G30    29.88R
DUBLIN*        CLEAR     38  22  51 NW12      29.89R
MARION*        CLEAR     36  18  47 W15G22    29.91R
HILLSVILLE*    CLEAR     36  15  43 NW24      29.84R WCI  24
RICHLANDS*     FAIR      32  19  56 W6        29.93R
WISE*          CLEAR     32  19  59 W10       29.97R WCI  24
ABINGDON*      CLEAR     38  18  44 NW7       29.95R
$$

MDZ021>025-VAZ099-100-260300-
SOUTHERN MARYLAND AND THE DELMARVA PENINSULA

CITY           SKY/WX    TMP DP  RH WIND       PRES   REMARKS
PATUXENT RIVER MOCLDY    53  41  63 N13       29.67R
BAY BRIDGE APT CLOUDY    52  36  54 NW20G28   29.71R
LEONARDTOWN    CLOUDY    52  39  62 NW5       29.69R
DOVER          LGT RAIN  52  50  93 W8        29.68R
GEORGETOWN     CLOUDY    54  48  80 NW5       29.68R
EASTON         PTCLDY    54  39  58 N9        29.72R
CAMBRIDGE      CLOUDY    54  37  54 NW14      29.68R
SALISBURY      CLOUDY    53  43  68 N15       29.66R
OCEAN CITY     CLOUDY    54  48  80 N6        29.67R
WALLOPS ISLAND CLOUDY    53  47  79 N13       29.67R
ACCOMACK*      CLOUDY    54  47  77 N7        29.68R
$$

NCZ012>017-030>032-260300-
NORTH CENTRAL AND EASTERN NORTH CAROLINA

CITY           SKY/WX    TMP DP  RH WIND       PRES   REMARKS
ROANOKE RAPIDS CLOUDY    59  43  55 NW6       29.72R
RALEIGH        CLEAR     61  18  18 W13G23    29.77R
ELIZABETH CITY CLOUDY    63  46  54 NW16G28   29.69R
AHOSKIE*         N/A     60  46  59 W3        29.72R
EDENTON*       CLOUDY    65  45  48 NW12G20   29.70R
CURRITUCK*     CLOUDY    63  57  81 W6        29.68R
KILL DEVIL HLS NOT AVBL
MANTEO         CLOUDY    65  58  78 SW18      29.63R
CAPE HATTERAS  CLEAR     68  61  78 SW20G35   29.68R HAZE
TARBORO*       NOT AVBL
GOLDSBORO      CLEAR     68  42  38 NW13      29.70R
WASHINGTON     PTCLDY    66  59  77 N18G24    29.69R
GREENVILLE     MOCLDY    64  45  48 NW9       29.75R
NEW BERN       MOCLDY    66  59  78 SW7       29.71R
WILMINGTON     CLEAR     65  58  78 SW10      29.73R
$$

VAZ048-260300-
ELSEWHERE

CITY           SKY/WX    TMP DP  RH WIND       PRES   REMARKS
HARRISBURG PA  PTCLDY    45  28  51 NW29G40   29.70R
BALTIMORE      PTCLDY    49  28  44 W17G32    29.71R
ANNAPOLIS      MOCLDY    54  29  38 NW17G30   29.69R
ANDREWS AFB    CLOUDY    51  29  42 NW23G31   29.70R
PHILADELPHIA   CLOUDY    51  44  77 NW10      29.65R
HENDERSON NC   CLEAR     55  20  26 W7G17     29.76R
GREENSBORO     CLEAR     52  19  27 NW23G33   29.81R
ROCKY MOUNT    CLEAR     63  39  41 NW12G20   29.73R
$$

VAZ100-260300-
MARINE

STATION/POSITION TIME  TEMP    WIND        PRES    WAVE   SWELL
                       AIR SEA DIR/SP/G            HT/PER HT/PER
                 (UTC) (F)     (DEG/KT/KT) (MB)    (FT/S) (FT/S)
CAPE MAY NJ      0148   49 48  350/  9/ 13 1003.4R
LEWES DE         0148   48 45  340/ 10/ 11 1004.6R
OCEAN-CITY-INLET 0148   53 45  360/  7/  9 1005.1R
WACHAPREAGUE VA  0148   54 57   10/  5/ 10 1004.8R
THOMAS POINT MD  0200   53 45  330/ 19/ 23   N/A
GOOSES REEF MD   0200   49 44   20/  8/ 10 1006.0    1/ 2
COVE POINT MD    0148   50     350/ 13/ 14 1006.0R
SOLOMONS ISLAND  0148          340/ 10/ 14   N/A
BISHOPS HEAD MD  0148   53 54  340/  9/ 15 1005.1R
PINEY POINT MD   0148          360/ 13/ 15   N/A
POTOMAC MD       0200   53 46  350/  6/ 12 1004.2    1
CAMBRIDGE MD     0148   54 46  320/ 17/ 21 1004.1R
LEWISETTA VA     0148   53 51  350/  6/  8 1004.3R
RAPPAHANNOCK LGT 0148          360/ 14/ 15 1004.6R
YORK RVR RNG VA  0148   55      10/  4/  5 1004.5R
YORKTOWN VA      0148   59 50  310/ 12/ 14 1004.8R
JAMESTOWN VA     0200   59 54  260/  8/ 16   N/A     0
DOMINION TERM VA 0148   60     340/  9/ 13 1005.0R
KIPTOPEKE VA     0148      52   10/ 13/ 20   N/A
CHES BAY BRIDGE  0148   53 47   10/ 14/ 16 1005.1R
CAPE HENRY VA    0148   53     340/ 13/ 14   N/A
WILLOUBY STN VA  0148   61     310/ 15/ 19 1005.8R
S CRANEY ISL VA  0148   60     330/  4/  8 1004.6R
CAPE HENRY BUOY  0142      50                N/A     4/10   2/11
OFFSHORE WE BUOY 0151      49                N/A     5/11   2/11
64NM E OF VA BCH 0150   59 52  230/ 23/ 31 1001.8R   7/10   5/10
DUCK PIER NC     0148   65 49  290/ 14/ 26 1003.8R
44100 DUCK FRF   0105      51                N/A     5/11   2/11
44056 DUCK FRF   0130      51                N/A     4/11   2/11
OREGON INLET NC  0148          210/ 20/ 23   N/A
HATTERAS NC      0148   67 64  230/ 17/ 24 1004.8R
DIAMOND SHLS NC  0150   72 75  240/ 29/ 35 1004.4R  10/10   5/10
CAPE LOOKOUT NC  0200   66     230/ 16/ 23 1006.0R
$$




USA.gov is the U.S. government's official web portal to all federal, state and local government web resources and services.